Palma de Mallorca, Spain

4:23 AM CEST on May 29, 2017 (GMT +0200)
Palma De Mallorca

Weather History for LEPA - October, 2011

Change the Weather History Date:

Tuesday, October 25, 2011

  Actual Average Record
Temperature  
Mean Temperature 68 °F -  
Max Temperature 72 °F 66 °F 86 °F (2006)
Min Temperature 63 °F 48 °F 50 °F (2002)
Cooling Degree Days 2    
Growing Degree Days 18 (Base 50)    
Moisture  
Dew Point 56 °F    
Average Humidity 67    
Maximum Humidity 100    
Minimum Humidity 34    
Precipitation  
Precipitation 0.00 in 0.06 in - ()
Sea Level Pressure  
Sea Level Pressure 29.70 in    
Wind  
Wind Speed 13 mph ()    
Max Wind Speed 23 mph    
Max Gust Speed 41 mph    
Visibility 6.2 miles    
Events Rain , Thunderstorm    
Averages and records for this station are not official NWS values.
T = Trace of Precipitation, MM = Missing Value Source: Averaged Metar Reports

Daily Weather History Graph

Daily Weather History Graph

Search for Another Location

Airport or City:

Trip Planner

Search our weather history database for the weather conditions in past years. The results will help you decide how hot, cold, wet, or windy it might be!

Date:

Astronomy

Oct. 25, 2011 Rise Set
Actual Time 8:09 AM CEST 6:56 PM CEST
Civil Twilight 7:41 AM CEST 7:24 PM CEST
Nautical Twilight 7:10 AM CEST 7:55 PM CEST
Astronomical Twilight 6:38 AM CEST 8:26 PM CEST
Moon 6:22 AM CEST (10/25) 5:48 PM CEST (10/25)
Length of Visible Light 11h 42m
Length of Day
10h 47m
Waning Crescent, 3% of the Moon is Illuminated
Oct 25
Waning Crescent
Oct 26
New
Nov 2
First Quarter
Nov 10
Full
Nov 18
Last Quarter

Hourly Weather History & Observations

Time (CEST) Temp. Dew Point Humidity Pressure Visibility Wind Dir Wind Speed Gust Speed Precip Events Conditions
12:00 AM 69.8 °F 62.6 °F 78% 29.62 in 6.2 mi SSW 13.8 mph - N/A   Scattered Clouds
12:03 AM 68.0 °F 62.6 °F 83% 29.62 in 2.8 mi SSW 13.8 mph - N/A Rain Rain
12:09 AM 68.0 °F 60.8 °F 78% 29.62 in 4.3 mi SSW 18.4 mph 29.9 mph N/A   Scattered Clouds
12:30 AM 69.8 °F 59.0 °F 68% 29.62 in 6.2 mi SSW 20.7 mph 32.2 mph N/A   Partly Cloudy
1:00 AM 71.6 °F 57.2 °F 60% 29.59 in 6.2 mi SSW 23.0 mph 36.8 mph N/A   Partly Cloudy
1:30 AM 71.6 °F 62.6 °F 73% 29.59 in 6.2 mi SSW 23.0 mph 34.5 mph N/A Rain Light Rain
1:41 AM 66.2 °F 60.8 °F 83% 29.62 in 4.3 mi SW 19.6 mph 35.7 mph N/A Rain Rain
2:00 AM 64 °F 61 °F 87% 29.62 in 4 mi WSW 18.4 mph - - Rain Light Rain
2:00 AM 64.4 °F 60.8 °F 88% 29.62 in 3.7 mi WSW 19.6 mph 41.4 mph N/A Rain Rain
2:30 AM 64.4 °F 62.6 °F 94% 29.62 in 2.8 mi SW 23.0 mph 35.7 mph N/A Rain Rain
2:50 AM 68.0 °F 62.6 °F 83% 29.62 in 4.3 mi SW 17.3 mph 28.8 mph N/A Rain Light Rain
3:00 AM 68.0 °F 62.6 °F 83% 29.62 in 6.2 mi SW 19.6 mph 35.7 mph N/A   Scattered Clouds
3:30 AM 68.0 °F 62.6 °F 83% 29.59 in 6.2 mi SW 17.3 mph - N/A   Scattered Clouds
4:00 AM 68.0 °F 64.4 °F 88% 29.59 in 6.2 mi SW 11.5 mph - N/A   Scattered Clouds
4:22 AM 66.2 °F 62.6 °F 88% 29.59 in 3.7 mi West 8.1 mph - N/A Rain Rain
4:30 AM 66.2 °F 62.6 °F 88% 29.59 in 5.0 mi West 6.9 mph - N/A Rain Light Rain
5:00 AM 66.2 °F 62.6 °F 88% 29.59 in 5.0 mi SW 4.6 mph - N/A Rain , Thunderstorm Light Rain
5:30 AM 66.2 °F 62.6 °F 88% 29.59 in 6.2 mi SSW 5.8 mph - N/A   Scattered Clouds
6:00 AM 66.2 °F 64.4 °F 94% 29.59 in 6.2 mi Variable 2.3 mph - N/A   Scattered Clouds
6:30 AM 64.4 °F 62.6 °F 94% 29.59 in 6.2 mi Calm Calm - N/A   Scattered Clouds
7:00 AM 62.6 °F 62.6 °F 100% 29.59 in 6.2 mi Calm Calm - N/A   Partly Cloudy
7:30 AM 62.6 °F 62.6 °F 100% 29.62 in 6.2 mi Calm Calm - N/A   Partly Cloudy
8:00 AM 65 °F 62 °F 86% 29.62 in 12 mi West 5.8 mph - -   Partly Cloudy
8:00 AM 64.4 °F 62.6 °F 94% 29.62 in 6.2 mi WSW 6.9 mph - N/A   Scattered Clouds
8:30 AM 66.2 °F 59.0 °F 78% 29.62 in 6.2 mi West 9.2 mph - N/A   Scattered Clouds
9:00 AM 66.2 °F 57.2 °F 73% 29.65 in 6.2 mi West 9.2 mph - N/A   Scattered Clouds
9:30 AM 66.2 °F 53.6 °F 64% 29.65 in 6.2 mi West 9.2 mph - N/A   Scattered Clouds
10:00 AM 68.0 °F 53.6 °F 60% 29.68 in 6.2 mi West 10.4 mph - N/A   Partly Cloudy
10:30 AM 69.8 °F 50.0 °F 49% 29.68 in 6.2 mi West 11.5 mph - N/A   Partly Cloudy
11:00 AM 69.8 °F 50.0 °F 49% 29.71 in 6.2 mi WSW 17.3 mph - N/A   Partly Cloudy
11:30 AM 69.8 °F 50.0 °F 49% 29.71 in 6.2 mi WSW 16.1 mph - N/A   Partly Cloudy
12:00 PM 71.6 °F 53.6 °F 53% 29.71 in 6.2 mi WSW 17.3 mph - N/A   Partly Cloudy
12:30 PM 69.8 °F 50.0 °F 49% 29.71 in 6.2 mi WSW 17.3 mph - N/A   Partly Cloudy
1:00 PM 71.6 °F 50.0 °F 46% 29.71 in 6.2 mi WSW 17.3 mph - N/A   Partly Cloudy
1:30 PM 71.6 °F 50.0 °F 46% 29.74 in 6.2 mi WSW 16.1 mph - N/A   Partly Cloudy
2:00 PM 71 °F 49 °F 34% 29.75 in 19 mi West 17.3 mph - -   Scattered Clouds
2:00 PM 71.6 °F 48.2 °F 43% 29.74 in 6.2 mi WSW 16.1 mph - N/A   Partly Cloudy
2:30 PM 69.8 °F 48.2 °F 46% 29.74 in 6.2 mi WSW 16.1 mph - N/A   Partly Cloudy
3:00 PM 71.6 °F 51.8 °F 50% 29.74 in 6.2 mi WSW 15.0 mph - N/A   Partly Cloudy
3:30 PM 71.6 °F 51.8 °F 50% 29.74 in 6.2 mi WSW 16.1 mph - N/A   Partly Cloudy
4:00 PM 69.8 °F 50.0 °F 49% 29.74 in 6.2 mi WSW 16.1 mph - N/A   Partly Cloudy
4:30 PM 69.8 °F 51.8 °F 53% 29.77 in 6.2 mi WSW 15.0 mph - N/A   Partly Cloudy
5:00 PM 68.0 °F 51.8 °F 56% 29.77 in 6.2 mi SW 16.1 mph - N/A   Partly Cloudy
5:30 PM 68.0 °F 53.6 °F 60% 29.77 in 6.2 mi WSW 15.0 mph - N/A   Partly Cloudy
6:00 PM 68.0 °F 51.8 °F 56% 29.80 in 6.2 mi West 12.7 mph - N/A   Partly Cloudy
6:30 PM 66.2 °F 51.8 °F 60% 29.80 in 6.2 mi West 12.7 mph - N/A   Partly Cloudy
7:00 PM 66.2 °F 51.8 °F 60% 29.80 in 6.2 mi West 10.4 mph - N/A   Partly Cloudy
7:30 PM 66.2 °F 50.0 °F 56% 29.83 in 6.2 mi WSW 12.7 mph - N/A   Partly Cloudy
8:00 PM 66 °F 51 °F 48% 29.85 in 9 mi West 8.1 mph - -   Scattered Clouds
8:00 PM 66.2 °F 50.0 °F 56% 29.83 in 6.2 mi West 10.4 mph - N/A   Partly Cloudy
8:30 PM 64.4 °F 51.8 °F 64% 29.86 in 6.2 mi West 5.8 mph - N/A   Partly Cloudy
9:00 PM 66.2 °F 50.0 °F 56% 29.86 in 6.2 mi West 8.1 mph - N/A   Partly Cloudy
9:30 PM 66.2 °F 48.2 °F 52% 29.86 in 6.2 mi West 6.9 mph - N/A   Partly Cloudy
10:00 PM 66.2 °F 46.4 °F 49% 29.89 in 6.2 mi West 8.1 mph - N/A   Partly Cloudy
10:30 PM 66.2 °F 46.4 °F 49% 29.89 in 6.2 mi West 5.8 mph - N/A   Partly Cloudy
11:00 PM 64.4 °F 46.4 °F 52% 29.89 in 6.2 mi West 6.9 mph - N/A   Partly Cloudy
11:30 PM 64.4 °F 46.4 °F 52% 29.89 in 6.2 mi West 3.5 mph - N/A   Partly Cloudy